CW9540 Weather Reports


Display with metric or nautical units.
time (UTC)temp
F
wind
direction
speed
MPH
gust
MPH
rain 1hr
in
rain 24hr
in
rain mn
in
humidity
%
barometer
mb
20260902191556 85 269 2.0 5.0 0.00 0.09 0.09 73 1013.0
20260902190504 86 251 2.0 3.0 0.00 0.09 0.09 73 1011.1
20260902190056 85 208 2.0 5.0 0.00 0.09 0.09 71 1012.9
20260902190004 86 195 2.0 3.0 0.00 0.09 0.09 72 1010.9
20260902185503 87 178 1.0 3.0 0.00 0.09 0.09 71 1010.9
20260902185003 86 122 2.0 5.0 0.00 0.09 0.09 70 1010.9
20260902184601 86 145 1.0 4.0 0.00 0.09 0.09 72 1012.7
20260902184504 86 172 1.0 3.0 0.00 0.09 0.09 72 1010.8
20260902184004 86 264 1.0 3.0 0.00 0.09 0.09 70 1010.8
20260902183101 86 185 1.0 7.0 0.00 0.09 0.09 69 1012.8
20260902183003 86 157 2.0 3.0 0.00 0.09 0.09 70 1010.9
20260902182503 85 157 3.0 6.0 0.00 0.09 0.09 72 1011.1
20260902182004 85 172 2.0 3.0 0.00 0.09 0.09 72 1011.2
20260902181559 85 155 2.0 5.0 0.00 0.09 0.09 71 1013.1
20260902181504 85 183 3.0 5.0 0.00 0.09 0.09 70 1011.3
20260902181004 86 175 2.0 5.0 0.00 0.09 0.09 70 1011.3
20260902180504 86 118 2.0 3.0 0.00 0.09 0.09 69 1011.5
20260902180006 87 262 1.0 3.0 0.00 0.09 0.09 68 1011.6
20260902175503 87 205 2.0 6.0 0.00 0.09 0.09 66 1011.6
20260902175003 87 160 3.0 5.0 0.00 0.09 0.09 65 1011.8
20260902174606 88 102 3.0 8.0 0.00 0.09 0.09 64 1013.9
20260902174004 89 173 2.0 7.0 0.00 0.09 0.09 67 1012.0
20260902173504 87 238 1.0 5.0 0.00 0.09 0.09 69 1012.0
20260902173103 85 226 3.0 7.0 0.00 0.09 0.09 67 1014.0
20260902172504 85 176 3.0 6.0 0.00 0.09 0.09 67 1012.0
20260902172004 86 218 3.0 6.0 0.00 0.09 0.09 68 1012.1
20260902171604 85 193 4.0 11.0 0.00 0.09 0.09 67 1014.0
20260902171504 85 194 3.0 12.0 0.00 0.09 0.09 67 1012.0
20260902171004 85 164 2.0 6.0 0.00 0.09 0.09 69 1012.0
20260902170504 85 231 3.0 8.0 0.00 0.09 0.09 68 1012.0
20260902170053 84 170 3.0 8.0 0.00 0.09 0.09 70 1014.0
20260902170004 85 178 3.0 8.0 0.00 0.09 0.09 70 1012.0
20260902165503 85 184 4.0 8.0 0.00 0.09 0.09 69 1012.0
20260902165004 84 185 3.0 7.0 0.00 0.09 0.09 71 1012.2
20260902164607 83 89 2.0 8.0 0.00 0.09 0.09 74 1014.2
20260902164504 83 206 2.0 8.0 0.00 0.09 0.09 74 1012.3
20260902164003 84 169 3.0 8.0 0.00 0.09 0.09 71 1012.3
20260902163055 83 0 2.0 7.0 0.00 0.09 0.09 73 1014.2
20260902163004 83 187 3.0 6.0 0.00 0.09 0.09 73 1012.2
20260902162504 83 139 3.0 7.0 0.00 0.09 0.09 72 1012.4
20260902162004 83 176 2.0 3.0 0.00 0.09 0.09 75 1012.5
20260902161614 81 145 2.0 6.0 0.00 0.09 0.09 74 1014.4
20260902161503 81 182 2.0 5.0 0.00 0.09 0.09 75 1012.6
20260902161003 80 192 4.0 6.0 0.00 0.09 0.09 76 1012.7
20260902160503 81 202 4.0 7.0 0.00 0.09 0.09 74 1012.6
20260902160057 80 250 2.0 6.0 0.00 0.09 0.09 76 1014.3
20260902160006 81 226 2.0 6.0 0.00 0.09 0.09 76 1012.6
20260902155504 82 166 2.0 6.0 0.00 0.09 0.09 73 1012.5
20260902155004 82 179 2.0 6.0 0.00 0.09 0.09 76 1012.5
20260902154555 80 215 1.0 6.0 0.00 0.09 0.09 77 1014.4
20260902154003 79 188 2.0 6.0 0.00 0.09 0.09 82 1012.7
20260902153504 78 187 4.0 9.0 0.00 0.09 0.09 83 1012.9
20260902153053 77 195 2.0 6.0 0.00 0.09 0.09 85 1014.8
20260902153004 78 243 3.0 6.0 0.00 0.09 0.09 86 1012.8
20260902152504 77 283 2.0 3.0 0.00 0.09 0.09 91 1012.6
20260902152004 76 190 2.0 3.0 0.00 0.09 0.09 93 1012.7
20260902151600 75 219 1.0 3.0 0.00 0.09 0.09 94 1014.5
20260902151504 76 177 2.0 3.0 0.00 0.09 0.09 95 1012.6
20260902151003 76 184 1.0 2.0 0.00 0.09 0.09 96 1012.7
20260902150003 75 160 1.0 2.0 0.00 0.09 0.09 96 1012.6
20260902145503 75 124 1.0 3.0 0.00 0.09 0.09 96 1012.5
20260902145003 74 156 2.0 3.0 0.00 0.09 0.09 96 1012.5
20260902144613 74 257 1.0 4.0 0.00 0.09 0.09 96 1014.6
20260902144504 74 209 1.0 3.0 0.00 0.09 0.09 97 1012.6
20260902144004 74 137 1.0 3.0 0.00 0.09 0.09 97 1012.7
20260902143504 74 104 1.0 3.0 0.00 0.09 0.09 97 1012.9
20260902143108 73 152 1.0 4.0 0.00 0.09 0.09 96 1014.9
20260902143004 74 197 2.0 3.0 0.00 0.09 0.09 97 1012.9
20260902142504 73 61 1.0 2.0 0.00 0.09 0.09 97 1013.0
20260902141602 72 89 1.0 3.0 0.01 0.09 0.09 96 1015.3
20260902141504 72 67 1.0 2.0 0.01 0.09 0.09 96 1013.3
20260902141004 72 322 1.0 3.0 0.01 0.09 0.09 96 1013.5
20260902140503 72 131 1.0 2.0 0.04 0.09 0.09 96 1013.4
20260902140100 71 178 1.0 2.0 0.06 0.09 0.09 96 1015.3
20260902135503 71 67 1.0 2.0 0.08 0.09 0.09 96 1013.7
20260902135003 71 221 0.0 1.0 0.09 0.09 0.09 96 1013.9
20260902134604 70 0 0.0 2.0 0.09 0.09 0.09 96 1015.5
20260902134503 71 45 1.0 2.0 0.09 0.09 0.09 96 1013.7
20260902134004 71 116 0.0 1.0 0.09 0.09 0.09 96 1013.6
20260902133504 70 50 0.0 2.0 0.09 0.09 0.09 96 1013.6
20260902133051 70 28 0.0 2.0 0.09 0.09 0.09 96 1015.6
20260902133004 70 317 0.0 2.0 0.09 0.09 0.09 96 1013.9
20260902132504 70 168 1.0 2.0 0.09 0.09 0.09 96 1013.8
20260902132003 70 343 1.0 1.0 0.08 0.08 0.08 96 1013.9
20260902131601 70 0 0.0 2.0 0.08 0.08 0.08 95 1015.6
20260902131503 70 118 1.0 1.0 0.08 0.08 0.08 96 1013.8
20260902131004 70 133 1.0 2.0 0.08 0.08 0.08 96 1014.1
20260902130504 70 167 1.0 2.0 0.05 0.05 0.05 96 1014.2
20260902130057 69 0 0.0 3.0 0.03 0.03 0.03 95 1015.9
20260902125504 70 155 1.0 2.0 0.01 0.01 0.01 96 1013.7
20260902125003 70 233 0.0 1.0 0.00 0.00 0.00 96 1013.6
20260902124555 69 0 0.0 2.0 0.00 0.00 0.00 95 1015.3
20260902124504 69 336 0.0 2.0 0.00 0.00 0.00 96 1013.5
20260902123504 69 95 0.0 1.0 0.00 0.00 0.00 96 1012.9
20260902123102 69 0 0.0 1.0 0.00 0.00 0.00 95 1014.8
20260902122504 69 105 1.0 1.0 0.00 0.00 0.00 96 1013.1
20260902122004 69 153 0.0 1.0 0.00 0.00 0.00 96 1013.5
20260902121606 69 0 0.0 1.0 0.00 0.00 0.00 95 1015.0
20260902121504 69 229 0.0 1.0 0.00 0.00 0.00 96 1013.2
20260902120503 69 72 0.0 1.0 0.00 0.00 0.00 96 1012.3
20260902120107 68 28 0.0 2.0 0.00 0.00 0.00 95 1014.1
20260902120004 69 11 1.0 2.0 0.00 0.00 0.00 96 1012.3
20260902115505 69 62 1.0 1.0 0.00 0.00 0.00 96 1012.0
20260902115004 69 124 0.0 1.0 0.00 0.00 0.00 95 1012.3
20260902114615 68 0 0.0 2.0 0.00 0.00 0.00 95 1014.3
20260902114504 69 121 0.0 1.0 0.00 0.00 0.00 95 1012.3
20260902114004 69 359 1.0 2.0 0.00 0.00 0.00 96 1012.3
20260902113503 69 76 0.0 1.0 0.00 0.00 0.00 96 1011.6
20260902113058 68 0 0.0 1.0 0.00 0.00 0.00 95 1013.2
20260902113004 69 124 0.0 1.0 0.00 0.00 0.00 96 1011.3
20260902112504 69 358 0.0 1.0 0.00 0.00 0.00 96 1011.3
20260902112004 68 57 0.0 1.0 0.00 0.00 0.00 96 1011.3
20260902111600 68 0 0.0 1.0 0.00 0.00 0.00 95 1013.4
20260902111503 68 78 0.0 1.0 0.00 0.00 0.00 96 1011.6
20260902110503 68 147 0.0 1.0 0.00 0.00 0.00 96 1011.7
20260902110059 68 0 0.0 1.0 0.00 0.00 0.00 95 1013.6
20260902110005 68 176 0.0 1.0 0.00 0.00 0.00 96 1011.7
20260902105003 68 168 0.0 1.0 0.00 0.00 0.00 96 1011.4
20260902104552 68 0 0.0 2.0 0.00 0.00 0.00 95 1013.4
20260902104503 68 128 1.0 2.0 0.00 0.00 0.00 95 1011.5
20260902104004 68 168 1.0 2.0 0.00 0.00 0.00 95 1011.7
20260902103504 68 271 1.0 2.0 0.00 0.00 0.00 96 1011.6
20260902103109 68 0 0.0 2.0 0.00 0.00 0.00 95 1013.4
20260902102503 68 90 0.0 1.0 0.00 0.00 0.00 95 1011.4
20260902101554 68 178 0.0 2.0 0.00 0.00 0.00 95 1013.4
20260902101504 68 100 0.0 2.0 0.00 0.00 0.00 95 1011.5
20260902100052 68 117 0.0 2.0 0.00 0.00 0.00 95 1013.6
20260902100003 68 95 0.0 1.0 0.00 0.00 0.00 95 1011.7
20260902095503 68 230 1.0 2.0 0.00 0.00 0.00 95 1011.9
20260902095004 68 220 0.0 1.0 0.00 0.00 0.00 95 1011.8
20260902094559 68 0 0.0 1.0 0.00 0.00 0.00 95 1013.8
20260902094004 68 126 0.0 1.0 0.00 0.00 0.00 95 1012.1
20260902093503 68 123 0.0 1.0 0.00 0.00 0.00 95 1012.4
20260902093109 68 0 0.0 1.0 0.00 0.00 0.00 95 1014.1
20260902093003 68 78 0.0 1.0 0.00 0.00 0.00 95 1012.3
20260902092504 68 83 0.0 0.0 0.00 0.00 0.00 95 1012.4
20260902092004 68 217 0.0 1.0 0.00 0.00 0.00 95 1012.3
20260902091556 68 0 0.0 2.0 0.00 0.00 0.00 95 1014.1
20260902091504 68 248 0.0 2.0 0.00 0.00 0.00 95 1012.1
20260902091003 68 178 1.0 2.0 0.00 0.00 0.00 95 1012.2
20260902090104 68 0 0.0 1.0 0.00 0.00 0.00 95 1014.1
20260902085503 69 100 0.0 0.0 0.00 0.00 0.00 95 1012.4
20260902085004 69 165 0.0 1.0 0.00 0.00 0.00 95 1012.4
20260902084552 68 0 0.0 2.0 0.00 0.01 0.00 94 1014.2
20260902084504 68 16 0.0 1.0 0.00 0.00 0.00 95 1012.4
20260902084004 69 175 0.0 1.0 0.00 0.00 0.00 95 1012.4
20260902083503 69 147 0.0 2.0 0.00 0.00 0.00 95 1012.6
20260902083054 68 0 0.0 1.0 0.00 0.01 0.00 94 1014.5
20260902083003 69 12 1.0 1.0 0.00 0.00 0.00 95 1012.7
20260902082504 69 54 0.0 1.0 0.00 0.01 0.00 95 1012.7
20260902082004 69 80 0.0 1.0 0.00 0.01 0.00 95 1012.8
20260902081556 68 0 0.0 1.0 0.00 0.01 0.00 94 1014.6
20260902081504 69 250 0.0 1.0 0.00 0.01 0.00 95 1012.9
20260902081004 69 151 0.0 1.0 0.00 0.01 0.00 95 1012.8
20260902080503 69 135 0.0 1.0 0.00 0.01 0.00 95 1012.7
20260902080104 68 0 0.0 1.0 0.00 0.01 0.00 94 1014.5
20260902080003 69 7 0.0 1.0 0.00 0.01 0.00 95 1012.7
20260902075504 69 46 0.0 1.0 0.00 0.03 0.00 95 1012.7
20260902075004 69 62 0.0 1.0 0.00 0.03 0.00 95 1012.8
20260902074612 68 0 0.0 1.0 0.00 0.03 0.00 94 1014.6
20260902074503 69 92 0.0 0.0 0.00 0.03 0.00 95 1012.8
20260902074003 69 93 0.0 1.0 0.00 0.03 0.00 95 1012.8
20260902073504 69 74 0.0 1.0 0.00 0.03 0.00 95 1012.8
20260902073243 69 0 0.0 1.0 0.00 0.03 0.00 94 1014.6
20260902073004 69 85 0.0 0.0 0.00 0.03 0.00 95 1012.9
20260902071553 69 0 0.0 1.0 0.00 0.03 0.00 94 1014.6
20260902071503 69 70 0.0 0.0 0.00 0.03 0.00 95 1012.9
20260902071003 69 69 0.0 1.0 0.00 0.03 0.00 94 1013.0
20260902070504 69 67 0.0 1.0 0.00 0.03 0.00 94 1013.0
20260902070059 69 0 0.0 1.0 0.00 0.03 0.00 94 1014.7
20260902070005 69 134 0.0 1.0 0.00 0.03 0.00 94 1013.0
20260902065503 69 230 0.0 1.0 0.00 0.03 0.00 94 1013.0
20260902065003 69 272 1.0 2.0 0.00 0.03 0.00 94 1012.8
20260902064554 69 0 0.0 1.0 0.00 0.03 0.00 94 1014.5
20260902064504 69 231 0.0 1.0 0.00 0.03 0.00 94 1012.7
20260902064004 69 91 0.0 1.0 0.00 0.03 0.00 94 1012.6
20260902063504 69 33 0.0 1.0 0.00 0.03 0.00 94 1012.6
20260902063056 69 0 0.0 1.0 0.00 0.03 0.00 94 1014.5
20260902063004 69 106 0.0 1.0 0.00 0.03 0.00 94 1012.8
20260902061555 69 0 0.0 1.0 0.00 0.03 0.00 94 1014.9
20260902061504 70 87 0.0 1.0 0.00 0.03 0.00 94 1013.1
20260902061004 70 148 0.0 1.0 0.00 0.03 0.00 94 1013.1
20260902060100 69 0 0.0 1.0 0.00 0.03 0.00 93 1014.7
20260902060003 70 41 0.0 1.0 0.00 0.03 0.00 94 1013.1
20260902055003 70 23 0.0 0.0 0.00 0.04 0.00 94 1013.1
20260902054554 70 0 0.0 1.0 0.00 0.06 0.00 93 1014.9
20260902054504 70 167 1.0 1.0 0.00 0.04 0.00 94 1013.1
20260902054004 70 170 0.0 1.0 0.00 0.04 0.00 94 1013.2
20260902053504 70 55 0.0 1.0 0.00 0.04 0.00 94 1013.2
20260902053127 70 0 0.0 1.0 0.00 0.06 0.00 93 1014.9
20260902053004 70 14 0.0 1.0 0.00 0.04 0.00 94 1013.1
20260902052504 70 18 0.0 1.0 0.00 0.06 0.00 94 1013.0
20260902051557 70 0 0.0 1.0 0.00 0.06 0.00 93 1014.9
20260902051503 71 168 0.0 1.0 0.00 0.06 0.00 93 1013.1
20260902051004 71 63 0.0 1.0 0.00 0.06 0.00 93 1013.1
20260902050504 71 180 0.0 1.0 0.00 0.06 0.00 93 1013.1
20260902050103 70 0 0.0 1.0 0.00 0.06 0.00 93 1015.0
20260902045504 71 245 0.0 0.0 0.00 0.06 0.00 93 1013.1
20260902044555 71 0 0.0 2.0 0.00 0.06 0.00 93 1014.9
20260902044004 71 48 0.0 1.0 0.00 0.06 0.00 93 1013.1
20260902043113 71 0 0.0 1.0 0.00 0.06 0.00 93 1014.9
20260902043004 72 323 0.0 1.0 0.00 0.06 0.00 93 1013.1
20260902042003 72 57 0.0 1.0 0.00 0.06 0.00 93 1013.1
20260902041555 71 0 0.0 1.0 0.00 0.06 0.00 92 1015.0
20260902041505 72 132 0.0 1.0 0.00 0.06 0.00 93 1013.1
20260902041003 72 69 0.0 0.0 0.00 0.06 0.00 93 1013.1
20260902040503 72 69 0.0 1.0 0.00 0.06 0.00 93 1013.1
20260902040058 71 0 0.0 1.0 0.00 0.06 0.00 92 1015.0
20260902040004 72 35 0.0 1.0 0.00 0.06 0.00 93 1013.0
20260902035504 72 87 0.0 1.0 0.00 0.06 0.06 93 1013.1
20260902035004 72 58 0.0 1.0 0.00 0.06 0.06 93 1013.1
20260902034607 72 0 0.0 2.0 0.00 0.06 0.06 92 1015.1
20260902034504 72 235 1.0 2.0 0.00 0.06 0.06 93 1013.1
20260902034003 72 223 1.0 2.0 0.00 0.06 0.06 93 1013.2
20260902033503 72 284 0.0 1.0 0.00 0.06 0.06 92 1013.1
20260902033105 72 0 0.0 1.0 0.00 0.06 0.06 92 1014.9
20260902033004 72 10 0.0 1.0 0.00 0.06 0.06 92 1013.0
20260902032504 72 65 0.0 1.0 0.00 0.06 0.06 92 1013.0
20260902032004 72 98 0.0 1.0 0.00 0.06 0.06 92 1013.0
20260902031558 72 0 0.0 2.0 0.00 0.06 0.06 92 1014.9
20260902031504 72 59 0.0 1.0 0.00 0.06 0.06 92 1013.0
20260902031003 72 48 1.0 2.0 0.00 0.06 0.06 92 1013.2
20260902030503 72 267 0.0 2.0 0.00 0.06 0.06 92 1013.1
20260902030103 72 56 0.0 1.0 0.00 0.06 0.06 91 1015.0
20260902025004 72 49 0.0 1.0 0.00 0.06 0.06 92 1013.0
20260902024608 72 0 0.0 1.0 0.00 0.06 0.06 91 1014.9
20260902024504 72 46 0.0 1.0 0.00 0.06 0.06 91 1013.1
20260902024003 73 41 0.0 1.0 0.00 0.06 0.06 91 1013.1
20260902023503 73 329 0.0 1.0 0.00 0.06 0.06 91 1013.2
20260902023103 72 0 0.0 2.0 0.00 0.06 0.06 90 1015.0
20260902023003 73 154 0.0 2.0 0.00 0.06 0.06 91 1013.2
20260902022503 73 177 1.0 1.0 0.00 0.06 0.06 91 1013.1
20260902022004 73 68 0.0 1.0 0.00 0.06 0.06 91 1013.1
20260902021555 73 0 0.0 1.0 0.00 0.06 0.06 90 1014.9
20260902021504 73 66 0.0 1.0 0.00 0.06 0.06 91 1013.2
20260902021003 73 79 0.0 1.0 0.00 0.06 0.06 91 1013.2
20260902020503 73 59 1.0 1.0 0.00 0.06 0.06 91 1013.4
20260902020100 73 0 0.0 1.0 0.00 0.06 0.06 90 1015.1
20260902020003 73 18 0.0 1.0 0.00 0.06 0.06 91 1013.3
20260902015503 73 60 0.0 1.0 0.00 0.06 0.06 91 1013.4
20260902015003 73 353 0.0 1.0 0.00 0.06 0.06 91 1013.3
20260902014558 73 0 0.0 2.0 0.00 0.06 0.06 90 1015.1
20260902014503 73 85 0.0 0.0 0.00 0.06 0.06 91 1013.2
20260902013056 73 0 0.0 1.0 0.00 0.06 0.06 90 1015.1
20260902013003 73 49 0.0 1.0 0.00 0.06 0.06 91 1013.2
20260902012503 73 26 0.0 1.0 0.00 0.06 0.06 91 1013.2
20260902012003 73 41 0.0 1.0 0.00 0.06 0.06 91 1013.0
20260902011555 73 46 0.0 2.0 0.00 0.06 0.06 90 1015.1
20260902011504 74 19 0.0 2.0 0.00 0.06 0.06 90 1013.1
20260902011004 74 15 0.0 1.0 0.00 0.06 0.06 90 1013.0
20260902010056 73 0 0.0 1.0 0.00 0.06 0.06 90 1014.9
20260902010003 74 71 0.0 1.0 0.00 0.06 0.06 90 1013.0
20260902004600 73 0 0.0 1.0 0.00 0.06 0.06 89 1014.5
20260902004504 74 61 0.0 0.0 0.00 0.06 0.06 90 1012.6
20260902004004 74 67 0.0 0.0 0.00 0.06 0.06 89 1012.4
20260902003504 74 90 0.0 1.0 0.00 0.06 0.06 90 1012.3
20260902003101 74 0 0.0 1.0 0.00 0.06 0.06 89 1014.1
20260902003004 74 87 0.0 1.0 0.00 0.06 0.06 90 1012.2
20260902002504 74 86 0.0 0.0 0.00 0.06 0.06 89 1012.1
20260902002003 74 57 0.0 1.0 0.00 0.06 0.06 89 1012.0
20260902001559 74 0 0.0 1.0 0.00 0.06 0.06 88 1013.8
20260902001503 74 278 0.0 1.0 0.00 0.06 0.06 88 1011.9
20260902001003 75 97 1.0 1.0 0.00 0.06 0.06 88 1011.8
20260902000503 75 81 0.0 1.0 0.00 0.06 0.06 88 1011.8
20260902000056 74 0 0.0 1.0 0.00 0.06 0.06 88 1013.7
20260902000004 75 80 0.0 1.0 0.00 0.06 0.06 88 1011.8
20260901235004 76 8 0.0 1.0 0.00 0.06 0.06 86 1011.8
20260901234559 76 0 0.0 1.0 0.00 0.06 0.06 85 1013.7
20260901234504 76 54 0.0 1.0 0.00 0.06 0.06 85 1011.8
20260901234004 76 288 0.0 1.0 0.00 0.06 0.06 85 1011.9
20260901233103 76 0 0.0 1.0 0.00 0.06 0.06 84 1013.7
20260901233004 77 87 0.0 1.0 0.00 0.06 0.06 85 1011.9
20260901232503 77 52 0.0 1.0 0.00 0.06 0.06 85 1011.9
20260901231607 77 0 0.0 2.0 0.00 0.06 0.06 83 1013.8
20260901231503 78 20 0.0 1.0 0.00 0.06 0.06 83 1012.0
20260901231004 78 12 1.0 2.0 0.00 0.06 0.06 82 1012.0
20260901230504 78 28 0.0 1.0 0.00 0.06 0.06 83 1012.1
20260901230054 78 0 0.0 1.0 0.00 0.06 0.06 82 1014.0
20260901230004 78 109 0.0 1.0 0.00 0.06 0.06 83 1012.1
20260901225004 78 287 0.0 1.0 0.00 0.06 0.06 82 1012.1
20260901224555 78 0 0.0 2.0 0.00 0.07 0.06 81 1014.0
20260901224003 79 17 0.0 1.0 0.00 0.06 0.06 80 1012.1
20260901223503 79 35 1.0 2.0 0.00 0.06 0.06 80 1012.1
20260901223055 79 0 0.0 2.0 0.00 0.07 0.06 79 1014.0
20260901223005 79 5 1.0 2.0 0.00 0.06 0.06 79 1012.1
20260901222004 80 50 0.0 2.0 0.00 0.06 0.06 80 1011.9
20260901221556 80 28 0.0 2.0 0.00 0.07 0.06 79 1013.8
20260901221503 80 0 0.0 2.0 0.00 0.06 0.06 79 1012.0
20260901221003 81 333 1.0 2.0 0.00 0.07 0.06 77 1011.9
20260901220503 81 335 1.0 2.0 0.00 0.07 0.06 76 1011.9
20260901220118 82 0 0.0 2.0 0.00 0.07 0.06 75 1013.8
20260901220004 82 1 1.0 2.0 0.00 0.07 0.06 75 1011.8
20260901215503 83 17 1.0 2.0 0.00 0.07 0.06 73 1011.8
20260901215003 84 62 1.0 2.0 0.00 0.07 0.06 73 1011.9
20260901214556 83 0 1.0 3.0 0.00 0.07 0.06 74 1013.7
20260901214503 83 78 1.0 3.0 0.00 0.07 0.06 76 1011.8
20260901214004 82 322 1.0 2.0 0.00 0.07 0.06 77 1011.9
20260901213504 82 317 1.0 2.0 0.00 0.07 0.06 76 1011.7
20260901213058 82 13 0.0 2.0 0.00 0.07 0.06 76 1013.6
20260901213004 83 339 1.0 2.0 0.00 0.07 0.06 76 1011.7
20260901212503 81 43 1.0 2.0 0.00 0.07 0.06 77 1011.7
20260901212003 83 353 1.0 2.0 0.00 0.07 0.06 74 1011.7
20260901211603 84 344 0.0 3.0 0.00 0.07 0.06 72 1013.7
20260901211004 86 335 1.0 2.0 0.00 0.07 0.06 70 1011.7
20260901210504 84 70 1.0 2.0 0.00 0.07 0.06 74 1011.7
20260901210052 83 0 1.0 3.0 0.00 0.07 0.06 73 1013.6
20260901210003 84 330 1.0 2.0 0.00 0.07 0.06 73 1011.7
20260901205503 86 310 1.0 2.0 0.00 0.07 0.06 70 1011.7
20260901205004 84 19 2.0 3.0 0.00 0.07 0.06 72 1011.7
20260901204556 86 331 0.0 2.0 0.00 0.14 0.06 68 1013.5
20260901204504 86 103 1.0 2.0 0.00 0.07 0.06 69 1011.6
20260901204004 84 63 1.0 2.0 0.00 0.08 0.06 74 1011.8
20260901203504 83 18 1.0 2.0 0.00 0.08 0.06 74 1012.0
20260901203108 83 107 1.0 2.0 0.00 0.14 0.06 72 1013.9
20260901203004 84 73 1.0 2.0 0.00 0.08 0.06 74 1012.1
20260901202504 85 35 1.0 2.0 0.00 0.09 0.06 71 1011.9
20260901202004 87 318 0.0 2.0 0.00 0.10 0.06 68 1011.8
20260901201557 87 46 0.0 4.0 0.00 0.14 0.06 67 1013.7
20260901201504 88 323 1.0 2.0 0.00 0.10 0.06 67 1011.8
20260901200052 87 283 1.0 3.0 0.00 0.14 0.06 68 1013.8
20260901200003 87 77 1.0 3.0 0.00 0.14 0.06 69 1011.8
20260901195004 84 319 1.0 3.0 0.00 0.14 0.06 72 1011.7
20260901194604 83 331 1.0 3.0 0.00 0.33 0.06 72 1013.7
20260901194504 83 313 1.0 3.0 0.00 0.15 0.06 72 1011.7
20260901194003 85 297 1.0 3.0 0.00 0.16 0.06 68 1011.7
20260901193503 87 313 1.0 3.0 0.00 0.17 0.06 70 1011.7
20260901193105 85 229 1.0 3.0 0.00 0.33 0.06 69 1013.7
20260901193004 86 284 1.0 3.0 0.00 0.18 0.06 68 1011.8
20260901192503 88 64 1.0 3.0 0.00 0.18 0.06 65 1011.9